カタリナ-スキッフ彗星

C/1999 U4 ( Catalina-Skiff )

English version
Home page
Updated on April 3, 2004

---------------------------------------------------------------------

・ プロフィール

発見日 1999年10月31日
発見光度 17.0等
発見者 T. B. Spahr (Catalina Sky Survey), B. A. Skiff (Lowell Observatory-LONEOS)

・ 写真集

・ 軌道要素

Epoch 2001 Oct. 18.0 TT = JDT 2452200.5
T 2001 Oct. 28.4634 TT                                  MPCN
q   4.915290             (2000.0)            P               Q
z  -0.001554       Peri.   77.5128      -0.1388414      -0.8965960
 +/-0.000001       Node    32.2888      +0.2672264      -0.4428024
e   1.007637       Incl.   51.9262      +0.9535791      -0.0064559
From 501 observations 1999 Sept. 18-2002 June 19, mean residual 0".7.

・ 星図

・ 光度変化

        m1 = 10.0 + 5 logΔ + 3.5 log r  [ ,0]  (              〜2001年10月28日)
        m1 =  7.2 + 5 logΔ + 7.5 log r  [0, ]  (2001年10月28日〜              )

---------------------------------------------------------------------

軌道要素はMPCのEphemerides and Orbital Elementsに掲載されたものです。
星図は StellaNavigator Ver.2.0 for Windows (アストロアーツ 編著 / アスキー出版局刊) で作成したものです。
光度グラフはComet for Windowsで作成したものです。

---------------------------------------------------------------------

Copyright(C) Seiichi Yoshida (comet@aerith.net). All rights reserved.